Notices

What's New in latest Release from April 7th, 2021:

- Updated Glossary, including Speed of Maximum Gust, and Total Hourly Precipitation

- Updated national and regional climate services offices contacts and prices information

- Addition of station inventory lists for 1981-2010, 1971-2000, and 1961-1990 Normals.

If you haven't already, please take our survey and provide feedback about our website: https://eccc.sondage-survey.ca/f/LanguageSelection.aspx?s=442ca660-fcf1-47c0-95a9-59707d6fd709

Hourly Data Report for May 03, 2020

TRENTON A
ONTARIO
Current Station Operator: DND

44°07'00.000" N
77°32'00.000" W
86.30 m
6158875
71621
YTR

Download Data

Hourly Data (May 2020)
Hourly Data Report for May 3, 2020
TIME
LST
Temp Definition
°C
Dew Point Definition
°C
Rel Hum Definition
%
Precip. Amount Definition
mm

Wind Dir Definition
10's deg

Wind Spd Definition
km/h
Visibility Definition
km
Stn Press Definition
kPa
Hmdx Definition


Wind Chill Definition


Weather Definition


00:00 10.1 7.5 84   36 11 24.1 99.63     Rain Showers
01:00 9.6 8.0 90   5 4 24.1 99.51     Mostly Cloudy
02:00 7.9 6.6 91     0 24.1 99.46     Mainly Clear
03:00 7.0 6.0 93   31 4 11.3 99.44     Mainly Clear
04:00 6.6 6.2 97   25 9 19.3 99.54     Clear
05:00 7.9 6.2 89   21 5 24.1 99.62     Clear
06:00 8.7 6.6 87   21 9 24.1 99.68     Clear
07:00 9.0 6.6 85   21 11 24.1 99.73     Mainly Clear
08:00 11.2 7.3 77   22 17 24.1 99.76     Mostly Cloudy
09:00 14.2 8.1 67   22 17 24.1 99.73     Mostly Cloudy
10:00 16.2 8.0 58   25 24 24.1 99.67     Mainly Clear
11:00 18.3 7.7 50   23 21 24.1 99.62     Mainly Clear
12:00 18.7 7.2 47   22 22 24.1 99.54     Mainly Clear
13:00 19.2 9.1 52   22 24 24.1 99.46     Mainly Clear
14:00 19.1 8.5 50   21 22 24.1 99.41     Mainly Clear
15:00 20.5 4.7 35   31 31 24.1 99.42     Mainly Clear
16:00 19.4 3.9 36   30 34 24.1 99.44     Mainly Clear
17:00 17.1 1.9 36   31 41 24.1 99.55     Mainly Clear
18:00 15.6 1.0 37   31 41 24.1 99.62     Mainly Clear
19:00 14.4 1.3 41   31 26 24.1 99.66     Mainly Clear
20:00 12.6 1.7 47   28 9 24.1 99.68     Mainly Clear
21:00 11.8 1.9 51   31 15 24.1 99.66     Mainly Clear
22:00 11.6 1.5 50   28 18 24.1 99.64     Mainly Clear
23:00 10.7 1.4 53   32 13 24.1 99.65     Mainly Clear

Notes on Data Quality.

Legend

  • E = Estimated
  • M = Missing
  • NA = Not Available*
  • [empty] = Indicates an unobserved value
Date modified: